Regional Weather Roundup
Issued by NWS Grand Forks, ND

Home | Current Version | Previous Version | Graphics & Text | Print | Product List | Glossary On
Versions: 1 2 3 4 5 6 7 8 9 10 11 12 13 14 15 16 17 18 19 20 21 22 23 24 25 26 27 28 29 30 31 32 33 34 35 36 37 38 39 40 41 42 43 44 45 46 47 48 49 50
000
ASUS43 KFGF 250310
RWRFGF
PRAIRIE TO PINES  WEATHER ROUNDUP
NATIONAL WEATHER SERVICE EASTERN NORTH DAKOTA/GRAND FORKS ND
1000 PM CDT FRI APR 24 2015

 **SATELLITE DATA USED TO AUGMENT SKY COVER AT AUTOMATED STATIONS**
 *****  WEATHER ACROSS EASTERN NORTH DAKOTA  *****

CITY           SKY/WX    TMP DP  RH WIND       PRES   REMARKS
GRAND FORKS    CLOUDY    49  37  63 SE10      29.80R
GRAND FRKS AFB CLOUDY    47  38  69 SE6       29.79R
GRAND FRKS NWS   N/A     46 N/A N/A SE15        N/A
DEVILS LAKE    CLEAR     46  37  71 E12       29.75R
FARGO          CLOUDY    47  39  74 E12       29.77R
WAHPETON ARPT  CLOUDY    45  39  81 E14       29.75R
$$

 ***** WEATHER ACROSS CENTRAL AND WESTERN NORTH DAKOTA  *****

CITY           SKY/WX    TMP DP  RH WIND       PRES   REMARKS
BISMARCK       CLEAR     52  41  66 E10       29.68R
MINOT          FAIR      48  36  63 E9        29.69R
JAMESTOWN      CLOUDY    49  41  74 E14       29.71R
MINOT AFB      CLOUDY    52  39  61 E15       29.68R
GARRISON         N/A     52  38  58 E10       29.67R
WILLISTON      MOCLDY    59  34  39 SE8       29.63R
DICKINSON      PTCLDY    50  32  50 E8        29.64R
HETTINGER      PTCLDY    47  33  58 E8        29.66R
$$

 *****  OTHER AIRPORT OBSERVATIONS IN OUR AREA  *****

CITY           SKY/WX    TMP DP  RH WIND       PRES   REMARKS
WALHALLA       CLOUDY    46  32  57 SE14      29.82S
GRAFTON AIRPOR CLOUDY    46  34  61 E15       29.82R
VALLEY CITY AR CLOUDY    45  45 100 E14       29.74R
CANDO          FAIR      45  36  70 E12       29.77R
CAVALIER APRT  CLOUDY    46  32  57 E10       29.83R
GWINNER        CLOUDY    48  43  81 E16G22    29.72R
SHEYENNE NWR     N/A     46  42  84 E14       29.95S
ROLLA          MOCLDY    43  36  75 E9        29.78R
 ***** THE ABOVE OBSERVATIONS ARE NON NWS ARE NOT QUALITY
       CONTROLLED AND MAY MIS-REPORT RAIN FOR SNOW...
$$

  *****  WEATHER ACROSS NORTHERN MINNESOTA  *****

CITY           SKY/WX    TMP DP  RH WIND       PRES   REMARKS
FLAG ISLAND    CLOUDY    41  27  56 E7        29.91S
WARROAD        CLOUDY    36  34  93 NE8       29.89F
ROSEAU         CLOUDY    43  34  70 E9        29.87S
HALLOCK        CLOUDY    46  32  57 E10       29.83S
THF RVR FALLS  CLOUDY    45  32  61 E12       29.83S
BAUDETTE       CLOUDY    40  26  57 E9        29.89R
WASKISH        CLOUDY    43  30  61 CALM      29.87S
CROOKSTON      CLOUDY    46  36  66 SE9       29.82R
$$
  *****  WEATHER ACROSS CENTRAL AND WEST MINNESOTA  *****

CITY           SKY/WX    TMP DP  RH WIND       PRES   REMARKS
FOSSTON        CLOUDY    43  32  65 E9        29.82S
BEMIDJI        CLOUDY    41  30  65 E13       29.84S
PARK RAPIDS    CLOUDY    43  31  62 E13G23    29.80F
ELBOW LAKE     CLOUDY    43  41  92 E15G23    29.74R
WADENA         CLOUDY    41  32  70 E12G20    29.78S
DETROIT LAKES  CLOUDY    43  36  75 SE14G20   29.78S
MOORHEAD       CLOUDY    45  39  81 E12       29.78R
FERGUS FALLS   CLOUDY    45  37  76 SE14      29.77R
MORRIS MN      CLOUDY    45  43  93 E16       29.72R FOG
STAPLES        CLOUDY    41  32  70 E7        29.80S
$$
  *****  WEATHER ELSEWHERE ACROSS MINNESOTA  *****

CITY           SKY/WX    TMP DP  RH WIND       PRES   REMARKS
DULUTH         CLOUDY    35  22  58 E13G24    29.91S
INTRNTL FALLS  CLOUDY    40  20  44 E9        29.92R
ELY            CLOUDY    36  12  38 E8        29.95F
CLOQUET        CLOUDY    36  25  64 E13G18    29.91S
WHEATON        CLOUDY    43  39  87 E17G23    29.74R
BRAINERD       CLOUDY    40  32  73 E8        29.84R
HIBBING        CLOUDY    37  19  48 E10G20    29.91S
ALEXANDRIA     LGT RAIN  42  41  96 E16       29.76S FOG
SAINT CLOUD    CLOUDY    45  38  76 E9G17     29.80S
MINNEAPOLIS    CLOUDY    44  41  89 E14       29.82S
$$

  *****  WEATHER ACROSS SOUTH DAKOTA  *****

CITY           SKY/WX    TMP DP  RH WIND       PRES   REMARKS
SIOUX FALLS    CLOUDY    54  48  80 SE17      29.60R
BROOKINGS      CLOUDY    52  46  82 E16G22    29.64R
WATERTOWN      CLOUDY    47  43  86 E10G21    29.64R
HURON          CLOUDY    54  48  80 E26G33    29.54S
SISSETON         N/A     46  43  89 SE15      29.70R
ABERDEEN       MOCLDY    50  44  80 NE12      29.64R
MITCHELL       TSTM      57  52  82 N8        29.56R
PIERRE         MOCLDY    58  46  64 NE18      29.52R
MOBRIDGE       CLEAR     55  45  68 E14       29.60R
RAPID CITY     MOCLDY    48  44  86 W3        29.61R
$$

  *****  SOME WEATHER IN NEARBY STATES *****

CITY           SKY/WX    TMP DP  RH WIND       PRES   REMARKS
GLASGOW MT     CLOUDY    56  34  43 N9        29.60R
GREAT FALLS MT LGT RAIN  43  39  86 SE6       29.70R
CHEYENNE WY    LGT RAIN  49  35  58 W23G35    29.71R
SCOTTSBLUFF NE CLOUDY    51  44  77 CALM      29.60S
OMAHA NE       CLOUDY    58  53  84 SE14      29.57R
DES MOINES IA  CLOUDY    51  46  83 E14       29.67S
DAVENPORT IA   CLOUDY    46  42  86 E15       29.80S
CHICAGO IL     LGT RAIN  41  35  79 E12       29.89F
EAU CLAIRE WI  CLOUDY    44  35  70 E14       29.89R
LA CROSSE WI   LGT RAIN  45  39  79 SE6       29.88R
$$

  *****  SOME NATIONAL WEATHER *****

CITY           SKY/WX    TMP DP  RH WIND       PRES   REMARKS
LA GUARDIA NY  CLEAR     41  22  46 NW15G25   29.93R
RALEIGH NC     MOCLDY    52  36  54 CALM      29.97F
ATLANTA GA     CLOUDY    68  48  48 S3        29.96S
NEW ORLEANS LA PTCLDY    71  66  84 SE7       29.84F
OKLAHOMA CITY  MOCLDY    63  59  87 S21G29    29.60R
ALBUQUERQUE NM MOCLDY    56  35  45 N7        29.91R
SALT LAKE CITY HVY RAIN  48  43  82 W14       29.75R
LOS ANGELES CA MOCLDY    59  51  75 W8        29.99S
BOISE ID       MOCLDY    53  31  42 CALM      29.73R
SEATTLE WA     MOCLDY    48  41  76 SE15      29.84R
$$

*** WEATHER ACROSS MANITOBA...SASKATCHEWAN AND ONTARIO ***
                ***ONTARIO***

CITY           SKY/WX    TMP DP  RH WIND       PRES   REMARKS
GERALDTON      CLEAR     27  18  69 NE3       30.05S
THUNDER BAY    MOCLDY    34  28  80 E7        30.06R
SIOUX LOOKOUT  MOCLDY    39  16  38 E6        29.97S
TORONTO        CLEAR     32  21  64 N10       30.02F WCI  24
BIG TROUT LK   PTCLDY    19  14  79 E5        30.10S WCI  13
PICKLE LAKE    NOT AVBL
DRYDEN         CLOUDY    41  19  42 SE7       29.95S
KENORA         CLOUDY    39  23  52 SE8       29.94R
$$
                *** MANITOBA***

CITY           SKY/WX    TMP DP  RH WIND       PRES   REMARKS
BRANDON        MOCLDY    45  34  65 E8        29.80R
DAUPHIN        CLOUDY    50  34  53 E12G18    29.80S
ISLAND LAKE    PTCLDY    32  16  51 E8        30.01S WCI  25
PILOT MOUND      N/A     41  34  75 E9          N/A
THE PAS        FLURRIES  27  25  93 N10G17    29.94R WCI  17
THOMPSON       LGT SNOW  25  23  93 NE9       30.03R WCI  15
WINNIPEG       MOCLDY    43  30  61 SE17      29.88R
LYNN LAKE      MOCLDY    27  14  59 NE3       30.03R
CHURCHILL      PTCLDY    18  10  73 S9        30.16R WCI   6
GILLAM         MOCLDY    25  10  54 E6        30.12S WCI  18
$$
                ***SASKATCHEWAN***

CITY           SKY/WX    TMP DP  RH WIND       PRES   REMARKS
ESTEVAN        MOCLDY    54  36  50 E12       29.68R
KINDERSLEY     MOCLDY    46  37  71 E13       29.68R
LLOYDMINSTER   CLOUDY    34  28  80 E15       29.81R WCI  24
PRINCE ALBERT  FLURRIES  30  25  80 E14G21    29.89R WCI  20
REGINA         CLOUDY    52  30  43 E20G26    29.68R
YORKTON        MOCLDY    48  34  57 E7        29.76R
N. BATTLEFORD  MOCLDY    36  28  75 NE16G22   29.83R
LA RONGE       CLEAR     28  18  64 E7        29.98R WCI  21
SASKATOON      MOCLDY    37  28  70 NE16G24   29.79R
SWIFT CURRENT  MOCLDY    46  32  57 E15       29.65R
$$
NOTE: THESE ARE AUTOMATED STATIONS WITH LIMITED QUALITY CONTROL
      "FAIR" INDICATES FEW OR NO CLOUDS BELOW 12,000 FEET WITH NO
      SIGNIFICANT WEATHER AND/OR OBSTRUCTIONS TO VISIBILITY.
      SKY/WX - SKY CONDITION AND SIGNIFICANT WEATHER.
      TMP - AIR TEMPERATURE.    DP   - DEWPOINT TEMPERATURE.
      RH  - RELATIVE HUMIDITY.  PRES - PRESSURE.
      HX  - HEAT INDEX.         WCI  - WIND CHILL INDEX.
$



USA.gov is the U.S. government's official web portal to all federal, state and local government web resources and services.